Weather History for Stockton, CA

Change the Weather History Date:

Saturday, January 5, 2013

  Actual Average Record
Temperature  
Mean Temperature 41 °F -  
Max Temperature 50 °F 52 °F 67 °F (2012)
Min Temperature 32 °F 37 °F 20 °F (1949)
Degree Days  
Heating Degree Days 24 20  
Month to date heating degree days 118 100  
Since 1 July heating degree days 1022 1160  
Cooling Degree Days 0 0  
Month to date cooling degree days 0 0  
Year to date cooling degree days 0 0  
Moisture  
Dew Point 40 °F    
Average Humidity 87    
Maximum Humidity 100    
Minimum Humidity 74    
Precipitation  
Precipitation 0.73 in 0.08 in 0.73 in (2013)
Month to date precipitation 0.73 0.41  
Year to date precipitation 0.73 0.41  
Since 1 July precipitation 7.85 5.44  
Snow  
Snow 0.00 in - - ()
Month to date snowfall 0.0  
Since 1 July snowfall 0.0  
Snow Depth 0.00 in    
Sea Level Pressure  
Sea Level Pressure 30.18 in    
Wind  
Wind Speed 3 mph (NE)    
Max Wind Speed 10 mph    
Max Gust Speed 17 mph    
Visibility 1 miles    
Events Fog , Rain    
T = Trace of Precipitation, MM = Missing Value Source: NWS Daily Summary

Daily Weather History Graph

Daily Weather History Graph

Search for Another Location

Airport:

Trip Planner

Search our weather history database for the weather conditions in past years. The results will help you decide how hot, cold, wet, or windy it might be!

Date:

Astronomy

Jan. 05, 2013 Rise Set
Actual Time 7:21 AM PST 5:00 PM PST
Civil Twilight 6:51 AM PST 5:29 PM PST
Nautical Twilight 6:19 AM PST 6:02 PM PST
Astronomical Twilight 5:47 AM PST 6:34 PM PST
Moon 12:36 AM PST (1/5) 11:50 AM PST (1/5)
Length of Visible Light 10h 37m
Length of Day
9h 39m
Last Quarter, 43% of the Moon is Illuminated
Jan 5
Last Quarter
Jan 11
New
Jan 18
First Quarter
Jan 26
Full
Feb 3
Last Quarter

Hourly Weather History & Observations

Time (PST) Temp. Windchill Dew Point Humidity Pressure Visibility Wind Dir Wind Speed Gust Speed Precip Events Conditions
12:55 AM 37.0 °F 34.5 °F 35.1 °F 93% 30.23 in 3.0 mi East 3.5 mph - 0.00 in Rain Light Rain
1:55 AM 36.0 °F 31.1 °F 36.0 °F 100% 30.23 in 3.0 mi East 5.8 mph - 0.00 in Rain Light Rain
2:14 AM 35.6 °F 32.8 °F 35.6 °F 100% 30.24 in 2.5 mi ESE 3.5 mph - 0.00 in Rain Light Rain
2:55 AM 36.0 °F 29.6 °F 35.1 °F 97% 30.23 in 2.5 mi East 8.1 mph - 0.00 in   Clear
3:55 AM 36.0 °F 32.1 °F 36.0 °F 100% 30.23 in 2.5 mi ESE 4.6 mph - N/A   Clear
4:35 AM 33.8 °F - 33.8 °F 100% 30.23 in 1.5 mi Calm Calm - N/A   Clear
4:55 AM 33.1 °F - 33.1 °F 100% 30.24 in 1.0 mi Calm Calm - N/A   Clear
5:21 AM 35.6 °F - 35.6 °F 100% 30.24 in 0.8 mi Calm Calm - N/A   Mist
5:47 AM 33.8 °F - 33.8 °F 100% 30.24 in 1.2 mi Calm Calm - N/A   Partly Cloudy
5:55 AM 34.0 °F - 34.0 °F 100% 30.24 in 1.2 mi Calm Calm - N/A   Partly Cloudy
6:00 AM 33.8 °F 30.8 °F 32.0 °F 93% 30.24 in 0.8 mi ESE 3.5 mph - N/A   Mist
6:11 AM 33.8 °F 30.8 °F 33.8 °F 100% 30.24 in 0.8 mi ESE 3.5 mph - N/A   Clear
6:24 AM 33.8 °F 30.8 °F 33.8 °F 100% 30.24 in 1.0 mi ESE 3.5 mph - N/A   Clear
6:49 AM 33.8 °F 27.7 °F 32.0 °F 93% 30.26 in 1.2 mi West 6.9 mph - N/A   Mostly Cloudy
6:50 AM 33.8 °F 27.0 °F 32.0 °F 93% 30.26 in 1.0 mi West 8.1 mph - N/A   Mostly Cloudy
6:55 AM 33.1 °F 26.9 °F 33.1 °F 100% 30.26 in 0.2 mi West 6.9 mph - N/A Fog Fog
7:55 AM 33.1 °F - 33.1 °F 100% 30.27 in 0.2 mi Calm Calm - N/A Fog Fog
8:55 AM 34.0 °F - 34.0 °F 100% 30.28 in 0.2 mi Calm Calm - N/A Fog Fog
9:55 AM 36.0 °F - 36.0 °F 100% 30.28 in 0.2 mi Calm Calm - N/A Fog Fog
10:30 AM 37.4 °F - 37.4 °F 100% 30.28 in 0.2 mi Calm Calm - N/A Fog Fog
10:39 AM 37.4 °F 34.9 °F 37.4 °F 100% 30.27 in 0.8 mi South 3.5 mph - N/A   Overcast
10:46 AM 39.2 °F 37.0 °F 39.2 °F 100% 30.27 in 1.2 mi SE 3.5 mph - N/A   Mostly Cloudy
10:55 AM 39.0 °F 36.8 °F 37.9 °F 96% 30.26 in 1.5 mi SSE 3.5 mph - N/A   Scattered Clouds
11:55 AM 46.9 °F - 42.1 °F 83% 30.22 in 2.5 mi South 4.6 mph - N/A   Haze
12:55 PM 50.0 °F - 43.0 °F 77% 30.17 in 2.5 mi Calm Calm - N/A   Haze
1:55 PM 48.0 °F - 43.0 °F 83% 30.17 in 2.5 mi WSW 5.8 mph - N/A   Haze
2:55 PM 48.2 °F - 42.8 °F 82% 30.15 in 2.5 mi Calm Calm - N/A   Haze
3:55 PM 48.9 °F - 43.0 °F 80% 30.13 in 2.5 mi Calm Calm - N/A   Haze
4:55 PM 46.9 °F - 42.1 °F 83% 30.12 in 2.5 mi ENE 4.6 mph - N/A   Haze
5:19 PM 46.4 °F 45.2 °F 42.8 °F 87% 30.12 in 3.0 mi ENE 3.5 mph - N/A   Clear
5:55 PM 46.9 °F - 43.0 °F 86% 30.11 in 4.0 mi NNE 3.5 mph - N/A   Overcast
6:32 PM 46.4 °F 43.5 °F 44.6 °F 93% 30.11 in 2.5 mi NNW 5.8 mph - 0.01 in Rain Light Rain
6:55 PM 45.0 °F 42.6 °F 44.1 °F 97% 30.11 in 1.5 mi North 4.6 mph - 0.05 in Rain Rain
7:55 PM 45.0 °F - 45.0 °F 100% 30.11 in 1.0 mi Calm Calm - 0.12 in Rain Light Rain
8:29 PM 44.6 °F 43.1 °F 44.6 °F 100% 30.10 in 0.8 mi North 3.5 mph - 0.07 in Rain Rain
8:42 PM 44.6 °F 43.1 °F 44.6 °F 100% 30.10 in 1.0 mi NNE 3.5 mph - 0.07 in Rain Light Rain
8:51 PM 44.6 °F 43.1 °F 44.6 °F 100% 30.10 in 1.0 mi NNE 3.5 mph - 0.08 in Rain Light Rain
8:55 PM 45.0 °F 43.5 °F 45.0 °F 100% 30.10 in 1.0 mi North 3.5 mph - 0.08 in Rain Light Rain
9:18 PM 44.6 °F 42.2 °F 44.6 °F 100% 30.09 in 0.8 mi NNE 4.6 mph - 0.04 in Rain Rain
9:29 PM 44.6 °F 43.1 °F 44.6 °F 100% 30.09 in 0.8 mi NNE 3.5 mph - 0.05 in Rain Light Rain
9:37 PM 44.6 °F - 44.6 °F 100% 30.09 in 1.0 mi Calm Calm - 0.05 in Rain Light Rain
9:55 PM 45.0 °F 43.5 °F 45.0 °F 100% 30.09 in 1.0 mi West 3.5 mph - 0.08 in Rain Rain
10:00 PM 44.6 °F - 44.6 °F 100% 30.10 in 1.0 mi Calm Calm - 0.01 in Rain Rain
10:08 PM 46.4 °F 45.2 °F 44.6 °F 93% 30.10 in 0.8 mi WNW 3.5 mph - N/A Rain Rain
10:48 PM 44.6 °F 43.1 °F 44.6 °F 100% 30.10 in 0.8 mi ENE 3.5 mph - 0.20 in Rain Rain
10:55 PM 45.0 °F - 45.0 °F 100% 30.10 in 1.0 mi Calm Calm - 0.22 in Rain Rain
11:02 PM 44.6 °F - 44.6 °F 100% 30.10 in 0.8 mi Calm Calm - 0.02 in Rain Rain
11:13 PM 44.6 °F - 44.6 °F 100% 30.10 in 1.0 mi Calm Calm - 0.05 in Rain Rain
11:16 PM 44.6 °F - 44.6 °F 100% 30.10 in 1.0 mi Calm Calm - 0.05 in Rain Rain
11:27 PM 44.6 °F - 44.6 °F 100% 30.10 in 0.5 mi Calm Calm - 0.09 in Fog , Rain Rain
11:55 PM 45.0 °F 43.5 °F 45.0 °F 100% 30.08 in 0.8 mi North 3.5 mph - 0.17 in Rain Rain